Showing default

YAM-12, 69003

Orbit data source: Space-Track

YAM-12, 69003 is an American payload satellite in SSO that was launched on Sun, 03 May 2026 UTC via an FALCON 9 launch vehicle from the Air Force Western Test Range (AFWTR). Payload-class satellites include a variety of spacecraft equipped with specific instruments for various scientific and technological missions. These include communications satellites like Starlink; space stations such as the ISS; scientific satellites like the Hubble; Earth observation satellites from companies like Planet Labs, Umbra, and HawkEye 360; GPS; miniature CubeSats for education and research; and military/defense satellites.

Loading next visibility...
Identifier
69003, 2026-100Z
Orbit
SSO
Country
Flag of USUS
Related business
Manufacturer
Airbus/Toulouse
Mission
Operational spacecraft
Bus & Motor
ARROW, Unknown motor
Mass
~150 kg wet, ~140 kg dry
Launch date (UTC)
2026-05-03 (2 months ago)
Launch vehicle
FALCON 9
Launch site
Air Force Western Test Range (AFWTR)
Object type
Payload
Rocket body
Debris
Shape & HBR
Unknown shape, 14.5 m
Radar Cross Section
Large (>1 m²)

Expand to show TLE details & history
Last TLE update: 20 hours ago

TLE from 20 hours ago
0 YAM-12
1 69003U 26100Z   26174.95000694  .00001184  00000-0  12703-3 0  9990
2 69003  97.7338  72.1908 0011505  56.3924 303.8391 14.90434136  7699
Epoch: 2026-06-23T22:48Z
TLE epoch observation values (Epoch: 2026-06-23T22:48:00.599Z)
Latitude
0.00002°
Longitude
178.07408°
Altitude
595.158 km
Speed
7.565 km/s
True Right ascension
04h 48m 45s
True Declination
0° 00' 00"
Sunlit
Object was in daylight at epoch
Visualization orbit readout
Latitude
Unknown
Longitude
Unknown
Altitude
Unknown
Speed
Unknown
Apparent Right ascension
Unknown
Apparent Declination
Unknown
Sunlit
N/A
Visualization observer readout
Local Sidereal Time
06:02:39
Azimuth
Unknown
Elevation
Unknown
Doppler factor
Unknown
Orbital elements
Apogee altitude
601.621 km
Perigee altitude
585.579 km
Semi-major axis
6,971.737 km
Eccentricity
0.00115
Inclination
97.7338°
RAAN
72.1908°
Arg. of periapsis
56.3924°
True anomaly
303.72951°
Mean anomaly
303.8391°
Eccentric anomaly
303.78431°
Mean motion
3.72848 °/min
Orbital period
96.55 mins
BSTAR
0.00012703
Loading maneuver chart data...
Computing Atmospheric mass density...
Loading historical data...
Loading historical data...
Loading historical data...
Loading historical data...
Loading historical data...
Loading historical data...
Loading historical data...

Documentation

Showing up to 5 results
|